Simultaneous Nadir Overpasses (SNOs) Predictions

Prediction of SNOs between METOP-B and TERRA Satellite Orbit:

Table of predicted SNOs for the next 14.0 days since TLE Epoch: 10/23/2021
Index Date (METOP-B) Time (METOP-B) Lat,Lon (METOP-B) SZA (METOP-B ) Date (TERRA) Time (TERRA) Lat,Lon (TERRA) SZA (TERRA ) Distance(km) Time Diff (sec)
1 10/23/2021 23:41:45 81.25,-131.30 95.81 10/23/2021 23:41:52 81.25,-131.15 95.82 2.43 7
2 10/24/2021 00:32:24 -81.27, 36.92 84.07 10/24/2021 00:31:18 -81.26, 36.76 84.13 2.62 66
3 10/26/2021 18:25:28 -81.24, 127.62 83.26 10/26/2021 18:26:37 -81.24, 127.48 83.25 2.56 69
4 10/26/2021 19:16:07 81.26, -64.56 96.82 10/26/2021 19:16:02 81.26, -64.45 96.83 2.03 5
5 10/29/2021 13:59:50 -81.25,-165.65 82.28 10/29/2021 14:00:47 -81.25,-165.84 82.28 3.28 57
6 10/29/2021 14:50:30 81.25, 1.76 97.75 10/29/2021 14:50:13 81.25, 1.83 97.75 1.13 17
7 11/01/2021 09:34:13 -81.24, -99.72 81.43 11/01/2021 09:34:57 -81.24, -99.59 81.40 2.15 44
8 11/01/2021 10:24:51 81.26, 68.46 98.69 11/01/2021 10:24:22 81.26, 68.43 98.68 0.47 29
9 11/04/2021 05:08:35 -81.25, -33.04 80.52 11/04/2021 05:09:07 -81.25, -33.02 80.50 0.31 32



Historial Predications of SNOs between METOP-B and TERRA
